Regional Weather Roundup
Issued by NWS

Home | Current Version | Previous Version | Text Only | Print | Product List | Glossary Off
Versions: 1 2 3 4 5 6 7 8 9 10 11 12 13 14 15 16 17 18 19 20 21 22 23 24 25 26 27 28 29 30 31 32 33 34 35 36 37 38 39 40 41 42 43 44 45 46 47 48 49 50

701
ASUS43 KOAX 231910
RWRNE

WEATHER ROUNDUP FOR NEBRASKA
NATIONAL WEATHER SERVICE OMAHA NE
200 PM CDT MON OCT 23 2017

NOTES: SATELLITE DATA IS BEING USED TO AUGMENT CLOUD COVER ABOVE
       12000 FEET.
       "FAIR" INDICATES FEW OR NO CLOUDS BELOW 12,000 FEET WITH NO
       SIGNIFICANT WEATHER AND/OR OBSTRUCTIONS TO VISIBILITY.


NEZ001>004-019>022-054>056-232000-
NEBRASKA PANHANDLE

CITY           SKY/WX    TMP DP  RH WIND       PRES   REMARKS
SCOTTSBLUFF    SUNNY     56  19  23 NW25G35   30.39F
ALLIANCE       SUNNY     56  20  24 N26G41    30.34F
CHADRON        SUNNY     58  17  20 NW26G40   30.34F
GORDON         FAIR      58  19  22 N29G38    30.28F
KIMBALL        MOSUNNY   53  19  26 N33G41    30.39F
SIDNEY         SUNNY     56  19  23 NW29G44   30.36F
$$

NEZ057>060-069>072-079>082-232000-
SOUTHWEST NEBRASKA

CITY           SKY/WX    TMP DP  RH WIND       PRES   REMARKS
NORTH PLATTE   SUNNY     61  23  23 NW26G40   30.24F
IMPERIAL       PTSUNNY   60  19  20 NW25G36   30.31F
LEXINGTON      SUNNY     62  27  26 N23G37    30.21F
MCCOOK         SUNNY     63  23  21 N24G35    30.25F
OGALLALA       SUNNY     61  20  20 NW31G43   30.30F
$$

NEZ005>010-023>029-035>040-094-232000-
NORTH CENTRAL NEBRASKA

CITY           SKY/WX    TMP DP  RH WIND       PRES   REMARKS
VALENTINE      PTSUNNY   58  26  29 NW28G36   30.21F
AINSWORTH      CLOUDY    56  29  36 NW26G32   30.20F
BROKEN BOW     MOSUNNY   61  28  28 NW31G44   30.18F
O`NEILL        PTSUNNY   59  32  36 NW38G47   30.14S
ORD            MOSUNNY   62  28  27 NW30G46   30.13F
THEDFORD       PTSUNNY   59  24  26 NW30G43   30.23F
$$

NEZ041-046>049-061>064-073>077-083>087-232000-
SOUTH CENTRAL NEBRASKA

CITY           SKY/WX    TMP DP  RH WIND       PRES   REMARKS
GRAND ISLAND   MOSUNNY   62  28  27 N32G40    30.13F
AURORA         SUNNY     63  27  25 N28G44    30.12F
HASTINGS       MOSUNNY   62  27  26 NW28G40   30.15F
HEBRON         SUNNY     65  30  27 N22G32    30.11F
HOLDREGE       SUNNY     62  28  27 NW25G35   30.19F
KEARNEY        MOSUNNY   62  25  24 NW28G40   30.17F
YORK           SUNNY     63  30  29 NW33G39   30.09F
$$

NEZ011>018-030>034-042>045-232000-
NORTHEAST NEBRASKA

CITY           SKY/WX    TMP DP  RH WIND       PRES   REMARKS
NORFOLK        MOSUNNY   60  31  33 NW26G48   30.04F
ALBION         MOSUNNY   62  30  30 NW32G43   30.09F
BLAIR          MOSUNNY   63  33  33 NW24G32   29.99S
COLUMBUS       MOSUNNY   63  30  28 NW38G44   30.05F
FREMONT        MOSUNNY   63  31  30 NW37G46   30.02F
TEKAMAH        MOSUNNY   65  32  29 NW23G39   29.98F
WAYNE          PTSUNNY   59  28  30 NW30G38   30.03S
$$

NEZ050>053-065>068-078-088>093-232000-
SOUTHEAST NEBRASKA

CITY           SKY/WX    TMP DP  RH WIND       PRES   REMARKS
LINCOLN        SUNNY     66  31  27 MISG      30.05F
OMAHA EPPLEY   MOSUNNY   65  35  33 NW28G40   29.97F
BEATRICE       SUNNY     65  35  32 NW31G40   30.07S
FALLS CITY     SUNNY     65  36  34 NW21G36   29.99R
NEBRASKA CITY  MOSUNNY   65  36  34 NW26G35   30.00F
PLATTSMOUTH    MOSUNNY   64  35  33 NW26G35   29.99S HAZE
$$

NEZ044-045-051>053-067-232000-
OMAHA AREA

CITY           SKY/WX    TMP DP  RH WIND       PRES   REMARKS
OMAHA EPPLEY   MOSUNNY   65  35  33 NW28G40   29.97F
BLAIR          MOSUNNY   63  33  33 NW24G32   29.99S
FREMONT        MOSUNNY   63  31  30 NW37G46   30.02F
MILLARD        MOSUNNY   65  37  34 NW20G33   30.00F
OFFUTT AFB     MOSUNNY   64  36  35 NW28G37   29.98F
PLATTSMOUTH    MOSUNNY   64  35  33 NW26G35   29.99S HAZE
WAHOO          FAIR      65  31  27 NW25G37   30.02F
$$




USA.gov is the U.S. government's official web portal to all federal, state and local government web resources and services.